"2009-04-30 00:00:00",844162,7.499,131.8,1.019,0.138,15.53,106.9002,16.94,17.92,31.82,0,110.7,13.26,17.75,93.8
"2009-04-30 00:00:30",844163,7.541,131.4,2.287,0.154,15.56,106.8966,16.93,17.91,31.82,0,110.7,13.26,17.74,93.4
"2009-04-30 00:01:00",844164,8.33,123.3,3.031,0.435,15.56,106.8984,16.93,17.92,31.97,0,110.7,13.26,17.75,85.3
"2009-04-30 00:01:30",844165,8.41,127.4,2.787,0.389,15.6,106.8922,16.92,17.92,31.94,0,110.7,13.26,17.73,89.4
"2009-04-30 00:02:00",844166,8.64,122.6,2.566,0.532,15.56,106.8811,16.89,17.92,31.95,0,110.7,13.26,17.70,84.6
"2009-04-30 00:02:30",844167,9.18,126.2,2.211,0.284,15.58,106.8697,16.86,17.9,32.07,0,110.7,13.26,17.67,88.2
"2009-04-30 00:03:00",844168,9.13,123.7,1.885,0.252,15.61,106.8676,16.86,17.89,31.84,0,110.7,13.26,17.67,85.7
"2009-04-30 00:03:30",844169,8.34,125.5,2.765,0.227,15.63,106.8679,16.86,17.9,31.91,0,110.7,13.26,17.67,87.5
"2009-04-30 00:04:00",844170,8.57,128.7,3.521,0.201,15.61,106.8658,16.85,17.89,31.95,0,110.7,13.26,17.66,90.7
"2009-04-30 00:04:30",844171,8.66,131.3,1.545,0.31,15.65,106.8662,16.85,17.87,31.96,0,110.7,13.26,17.66,93.3
"2009-04-30 00:05:00",844172,8.62,131.4,1.783,0.145,15.6,106.8565,16.83,17.87,31.82,0,110.7,13.26,17.64,93.4
"2009-04-30 00:05:30",844173,8.4,131.3,1.565,0.337,15.63,106.8416,16.79,17.85,31.98,0,110.7,13.26,17.60,93.3
"2009-04-30 00:06:00",844174,8.22,133.2,2.599,0.476,15.63,106.8334,16.77,17.86,31.97,0,110.7,13.26,17.58,95.2
"2009-04-30 00:06:30",844175,7.653,128.7,2.21,0.256,15.62,106.8341,16.77,17.84,32,0,110.7,13.26,17.58,90.7
"2009-04-30 00:07:00",844176,8.27,131.1,2.162,0.285,15.66,106.8329,16.77,17.82,32.08,0,110.7,13.26,17.58,93.1
"2009-04-30 00:07:30",844177,8.14,128,4.017,0.295,15.6,106.8329,16.77,17.83,32.19,0,110.7,13.26,17.58,90.0
"2009-04-30 00:08:00",844178,7,123.7,2.629,0.457,15.6,106.8338,16.77,17.82,32.31,0,110.7,13.26,17.58,85.7
"2009-04-30 00:08:30",844179,6.628,116.8,4.444,0.764,15.56,106.8341,16.77,17.81,32.72,0,110.7,13.25,17.58,78.8
"2009-04-30 00:09:00",844180,7.038,117.3,2.505,0.655,15.67,106.8335,16.77,17.8,33.26,0,110.7,13.25,17.58,79.3
"2009-04-30 00:09:30",844181,7.421,117.9,4.764,0.2,15.66,106.8335,16.77,17.8,33.42,0,110.7,13.25,17.58,79.9
"2009-04-30 00:10:00",844182,7.6,124.7,5.268,0.378,15.69,106.8344,16.77,17.81,33.39,0,110.7,13.25,17.58,86.7
"2009-04-30 00:10:30",844183,6.387,120.6,3.693,0.332,15.63,106.8344,16.77,17.79,33.47,0,110.7,13.25,17.58,82.6
"2009-04-30 00:11:00",844184,8.02,124.4,3.362,0.344,15.59,106.835,16.77,17.79,33.4,0,110.7,13.25,17.58,86.4
"2009-04-30 00:11:30",844185,7.912,126.4,2.254,0.294,15.65,106.8381,16.78,17.78,33.29,0,110.7,13.25,17.59,88.4
"2009-04-30 00:12:00",844186,8.49,131.8,3.642,0.364,15.69,106.8363,16.78,17.79,33.45,0,110.7,13.25,17.59,93.8
"2009-04-30 00:12:30",844187,7.934,132.4,3.409,0.418,15.72,106.835,16.77,17.78,33.49,0,110.7,13.25,17.58,94.4
"2009-04-30 00:13:00",844188,8.27,131.2,6.884,0.423,15.73,106.835,16.77,17.78,33.77,0,110.7,13.25,17.58,93.2
"2009-04-30 00:13:30",844189,8.02,139.2,1.159,0.617,15.71,106.8347,16.77,17.78,33.51,0,110.7,13.25,17.58,101.2
"2009-04-30 00:14:00",844190,8.7,137.4,2.493,0.283,15.67,106.8396,16.78,17.76,33.12,0,110.7,13.26,17.59,99.4
"2009-04-30 00:14:30",844191,8.46,135.3,1.388,0.245,15.65,106.8353,16.77,17.77,32.85,0,110.7,13.26,17.58,97.3
"2009-04-30 00:15:00",844192,7.847,135.1,3.435,0.413,15.67,106.839,16.78,17.78,32.74,0,110.7,13.26,17.59,97.1
"2009-04-30 00:15:30",844193,7.614,134.6,1.843,0.471,15.65,106.8378,16.78,17.77,32.7,0,110.7,13.26,17.59,96.6
"2009-04-30 00:16:00",844194,8.09,130.3,1.543,0.169,15.56,106.8399,16.78,17.76,32.8,0,110.7,13.26,17.60,92.3
"2009-04-30 00:16:30",844195,7.662,127.2,2.059,0.173,15.66,106.8382,16.78,17.78,32.87,0,110.7,13.26,17.59,89.2
"2009-04-30 00:17:00",844196,7.716,130.8,1.342,0.237,15.69,106.8351,16.77,17.77,33.14,0,110.7,13.26,17.58,92.8
"2009-04-30 00:17:30",844197,7.605,131.3,3.399,0.687,15.73,106.8331,16.77,17.77,33.53,0,110.7,13.26,17.58,93.3
"2009-04-30 00:18:00",844198,7.649,134.3,3.203,0.614,15.69,106.8343,16.77,17.77,33.54,0,110.7,13.26,17.58,96.3
"2009-04-30 00:18:30",844199,7.802,135.6,1.848,0.271,15.66,106.8368,16.78,17.77,32.86,0,110.7,13.26,17.59,97.6
"2009-04-30 00:19:00",844200,7.682,134.8,3.312,0.217,15.69,106.8361,16.78,17.77,32.51,0,110.7,13.26,17.59,96.8
"2009-04-30 00:19:30",844201,7.572,135.8,2.651,0.234,15.64,106.8402,16.79,17.75,32.37,0,110.7,13.26,17.60,97.8
"2009-04-30 00:20:00",844202,8.24,131.6,1.227,0.239,15.63,106.8405,16.79,17.77,32.47,0,110.7,13.26,17.60,93.6
"2009-04-30 00:20:30",844203,8.22,132,1.692,0.489,15.69,106.8358,16.77,17.76,32.34,0,110.7,13.26,17.58,94.0
"2009-04-30 00:21:00",844204,8.26,131.4,2.133,0.45,15.65,106.8265,16.75,17.76,32.29,0,110.7,13.26,17.56,93.4
"2009-04-30 00:21:30",844205,8.35,131.5,2.772,0.324,15.67,106.8216,16.74,17.74,32.2,0,110.7,13.26,17.55,93.5
"2009-04-30 00:22:00",844206,8.61,133.4,2.263,0.222,15.7,106.8211,16.74,17.73,32,0,110.7,13.26,17.55,95.4
"2009-04-30 00:22:30",844207,8.51,138.1,2.096,0.211,15.71,106.8208,16.74,17.73,32.14,0,110.7,13.26,17.55,100.1
"2009-04-30 00:23:00",844208,7.708,137.8,2.185,0.219,15.7,106.8217,16.74,17.74,32.22,0,110.7,13.26,17.55,99.8
"2009-04-30 00:23:30",844209,8.28,136.5,1.437,0.167,15.77,106.822,16.74,17.73,31.9,0,110.7,13.26,17.55,98.5
"2009-04-30 00:24:00",844210,8.5,135.2,1.913,0.147,15.87,106.8217,16.74,17.73,31.88,0,110.7,13.26,17.55,97.2
"2009-04-30 00:24:30",844211,8.15,138.2,1.04,0.144,16.02,106.822,16.74,17.73,32.1,0,110.7,13.26,17.55,100.2
"2009-04-30 00:25:00",844212,8.08,137.6,0.837,0.075,16.12,106.8217,16.74,17.73,32.21,0,110.7,13.26,17.55,99.6
"2009-04-30 00:25:30",844213,7.968,139.8,1.014,0.11,16.14,106.8217,16.74,17.72,32.1,0,110.7,13.26,17.55,101.8
"2009-04-30 00:26:00",844214,7.754,138.6,1.205,0.112,16.33,106.82,16.73,17.71,32.02,0,110.7,13.26,17.54,100.6
"2009-04-30 00:26:30",844215,7.792,136.2,1.198,0.13,16.22,106.8144,16.72,17.72,31.91,0,110.7,13.25,17.53,98.2
"2009-04-30 00:27:00",844216,7.711,135.5,0.729,0.085,16.29,106.7989,16.68,17.71,31.71,0,110.7,13.25,17.49,97.5
"2009-04-30 00:27:30",844217,7.958,136.3,1.079,0.195,16.3,106.7882,16.65,17.7,31.6,0,110.7,13.26,17.46,98.3
"2009-04-30 00:28:00",844218,7.951,132.9,1.307,0.16,16.28,106.7882,16.65,17.68,31.58,0,110.7,13.25,17.46,94.9
"2009-04-30 00:28:30",844219,8.25,133.9,1.654,0.156,16.23,106.7882,16.65,17.69,31.64,0,110.7,13.26,17.46,95.9
"2009-04-30 00:29:00",844220,7.941,133.5,1.504,0.245,16.26,106.7882,16.65,17.67,31.64,0,110.7,13.26,17.46,95.5
"2009-04-30 00:29:30",844221,8.01,131.4,1.266,0.249,16.23,106.7711,16.61,17.65,31.62,0,110.7,13.26,17.42,93.4
"2009-04-30 00:30:00",844222,8.1,131.5,3.239,0.159,16.15,106.755,16.57,17.64,31.64,0,110.7,13.26,17.38,93.5
"2009-04-30 00:30:30",844223,8.27,127.9,1.299,0.198,16.12,106.7545,16.57,17.62,31.68,0,110.7,13.26,17.38,89.9
"2009-04-30 00:31:00",844224,8.43,127.6,3.082,0.277,15.97,106.7545,16.57,17.62,32.13,0,110.7,13.26,17.38,89.6
"2009-04-30 00:31:30",844225,8.23,126.2,3.545,0.177,15.9,106.7539,16.56,17.6,31.93,0,110.7,13.26,17.37,88.2
"2009-04-30 00:32:00",844226,8.37,121.1,4.317,0.314,15.84,106.7435,16.54,17.59,32.01,0,110.7,13.26,17.35,83.1
"2009-04-30 00:32:30",844227,7.909,121.1,3.117,0.2,15.74,106.73,16.5,17.58,32.39,0,110.7,13.26,17.31,83.1
"2009-04-30 00:33:00",844228,7.947,124.1,0.983,0.374,15.79,106.7207,16.48,17.57,31.87,0,110.7,13.27,17.29,86.1
"2009-04-30 00:33:30",844229,7.69,119.7,2.824,0.336,15.74,106.7207,16.48,17.56,32.49,0,110.6,13.27,17.29,81.7
"2009-04-30 00:34:00",844230,7.492,119.5,1.841,0.352,15.73,106.7207,16.48,17.56,32.87,0,110.6,13.27,17.29,81.5
"2009-04-30 00:34:30",844231,7.253,120.7,2.655,0.237,15.72,106.7207,16.48,17.54,32.87,0,110.6,13.27,17.29,82.7
"2009-04-30 00:35:00",844232,7.595,122.4,2.4,0.425,15.7,106.7207,16.48,17.54,32.45,0,110.6,13.27,17.29,84.4
"2009-04-30 00:35:30",844233,7.893,121.7,1.304,0.144,15.73,106.7207,16.48,17.52,31.89,0,110.6,13.27,17.29,83.7
"2009-04-30 00:36:00",844234,7.468,120.2,1.417,0.278,15.73,106.7207,16.48,17.52,31.85,0,110.6,13.27,17.29,82.2
"2009-04-30 00:36:30",844235,7.159,117.8,1.862,0.211,15.69,106.7207,16.48,17.52,32.36,0,110.6,13.27,17.29,79.8
"2009-04-30 00:37:00",844236,7.59,119.4,1.698,0.137,15.73,106.7207,16.48,17.51,32.09,0,110.6,13.27,17.29,81.4
"2009-04-30 00:37:30",844237,7.356,114.4,1.56,0.177,15.7,106.7207,16.48,17.49,32.44,0,110.6,13.27,17.29,76.4
"2009-04-30 00:38:00",844238,7.839,112.3,2.294,0.308,15.69,106.7204,16.48,17.49,33.19,0,110.6,13.27,17.29,74.3
"2009-04-30 00:38:30",844239,8.3,114.8,1.327,0.302,15.66,106.7176,16.47,17.5,33.19,0,110.6,13.27,17.28,76.8
"2009-04-30 00:39:00",844240,8.32,114.1,2.34,0.193,15.61,106.7058,16.44,17.49,33.29,0,110.6,13.27,17.25,76.1
"2009-04-30 00:39:30",844241,7.937,121.6,1.642,0.224,15.65,106.6914,16.4,17.49,33.35,0,110.6,13.27,17.21,83.6
"2009-04-30 00:40:00",844242,7.444,121.2,2.15,0.388,15.65,106.6875,16.39,17.48,33.48,0,110.6,13.27,17.20,83.2
"2009-04-30 00:40:30",844243,7.905,122.2,2.141,0.313,15.62,106.6872,16.39,17.45,33.66,0,110.6,13.27,17.20,84.2
"2009-04-30 00:41:00",844244,8.61,119.6,2.481,0.303,15.66,106.6878,16.4,17.44,33.1,0,110.6,13.27,17.20,81.6
"2009-04-30 00:41:30",844245,8.55,122.8,2.827,0.229,15.65,106.6884,16.4,17.46,32.73,0,110.6,13.27,17.21,84.8
"2009-04-30 00:42:00",844246,8.46,119.3,1.079,0.165,15.76,106.6861,16.39,17.45,32.57,0,110.6,13.27,17.20,81.3
"2009-04-30 00:42:30",844247,8.23,119.4,0.769,0.158,15.72,106.6724,16.36,17.44,32.41,0,110.6,13.26,17.16,81.4
"2009-04-30 00:43:00",844248,7.935,122.1,0.639,0.141,15.75,106.6618,16.33,17.42,32.59,0,110.6,13.26,17.14,84.1
"2009-04-30 00:43:30",844249,7.601,122.5,0.847,0.085,15.81,106.6628,16.33,17.41,32.76,0,110.6,13.26,17.14,84.5
"2009-04-30 00:44:00",844250,7.823,123.3,0.943,0.329,15.7,106.6661,16.34,17.4,32.42,0,110.6,13.26,17.15,85.3
"2009-04-30 00:44:30",844251,7.749,124.6,1.05,0.193,15.66,106.6649,16.34,17.38,32.16,0,110.6,13.26,17.15,86.6
"2009-04-30 00:45:00",844252,7.646,124.2,1.422,0.111,15.76,106.6691,16.35,17.37,32.33,0,110.6,13.26,17.16,86.2
"2009-04-30 00:45:30",844253,7.841,125.3,0.959,0.105,15.79,106.6721,16.35,17.36,32.17,0,110.6,13.26,17.16,87.3
"2009-04-30 00:46:00",844254,7.674,124.6,0.866,0.157,15.69,106.6721,16.35,17.35,32.04,0,110.6,13.26,17.16,86.6
"2009-04-30 00:46:30",844255,7.612,125.5,1.984,0.162,15.72,106.674,16.36,17.35,32.01,0,110.6,13.26,17.17,87.5
"2009-04-30 00:47:00",844256,7.208,125.4,2.189,0.236,15.75,106.6742,16.36,17.34,32.14,0,110.6,13.27,17.17,87.4
"2009-04-30 00:47:30",844257,7.222,125.3,1.663,0.174,15.74,106.6757,16.36,17.33,32.31,0,110.6,13.27,17.17,87.3
"2009-04-30 00:48:00",844258,7.622,127,1.284,0.23,15.74,106.6726,16.36,17.35,32.11,0,110.6,13.27,17.17,89.0
"2009-04-30 00:48:30",844259,7.425,125.9,0.972,0.154,15.78,106.6714,16.35,17.33,31.97,0,110.6,13.27,17.16,87.9
"2009-04-30 00:49:00",844260,7.692,128.6,0.956,0.086,15.86,106.6726,16.36,17.33,31.91,0,110.6,13.27,17.17,90.6
"2009-04-30 00:49:30",844261,7.774,128.3,0.872,0.089,15.83,106.6717,16.35,17.34,31.82,0,110.6,13.27,17.16,90.3
"2009-04-30 00:50:00",844262,7.566,128.5,0.943,0.155,15.95,106.6714,16.35,17.33,31.84,0,110.6,13.27,17.16,90.5
"2009-04-30 00:50:30",844263,7.376,129,0.803,0.135,16.02,106.6681,16.34,17.32,31.77,0,110.6,13.27,17.15,91.0
"2009-04-30 00:51:00",844264,7.474,130.8,0.832,0.071,15.96,106.6721,16.35,17.31,31.72,0,110.6,13.27,17.16,92.8
"2009-04-30 00:51:30",844265,7.419,131.8,0.93,0.066,15.96,106.6684,16.35,17.29,31.76,0,110.6,13.27,17.15,93.8
"2009-04-30 00:52:00",844266,7.225,133.9,0.641,0.071,15.95,106.6677,16.34,17.31,31.8,0,110.6,13.27,17.15,95.9
"2009-04-30 00:52:30",844267,7.207,134.1,0.807,0.07,15.96,106.6692,16.35,17.32,31.82,0,110.6,13.27,17.16,96.1
"2009-04-30 00:53:00",844268,7.162,134.3,0.964,0.15,15.95,106.6683,16.35,17.31,31.81,0,110.6,13.27,17.15,96.3
"2009-04-30 00:53:30",844269,7.283,136.5,0.635,0.068,16.07,106.6658,16.34,17.31,31.74,0,110.6,13.27,17.15,98.5
"2009-04-30 00:54:00",844270,7.196,135.9,0.943,0.182,16.08,106.6684,16.35,17.31,31.56,0,110.6,13.27,17.15,97.9
"2009-04-30 00:54:30",844271,7.046,138.6,0.952,0.118,16.04,106.6706,16.35,17.3,31.63,0,110.6,13.27,17.16,100.6
"2009-04-30 00:55:00",844272,6.707,139.2,1.397,0.076,16.1,106.6712,16.35,17.31,31.68,0,110.6,13.27,17.16,101.2
"2009-04-30 00:55:30",844273,6.471,142.2,0.682,0.101,16.2,106.6748,16.36,17.3,31.67,0,110.6,13.27,17.17,104.2
"2009-04-30 00:56:00",844274,6.182,141.5,0.636,0.052,16.35,106.6771,16.37,17.32,31.68,0,110.6,13.27,17.18,103.5
"2009-04-30 00:56:30",844275,6.29,140.7,2.64,0.231,16.22,106.6771,16.37,17.31,31.7,0,110.6,13.27,17.18,102.7
"2009-04-30 00:57:00",844276,6.183,141.1,1.375,0.09,16.18,106.6793,16.37,17.32,31.68,0,110.6,13.27,17.18,103.1
"2009-04-30 00:57:30",844277,6.332,141.1,1.348,0.143,16.06,106.6782,16.37,17.32,31.69,0,110.6,13.27,17.18,103.1
"2009-04-30 00:58:00",844278,6.256,140.5,0.787,0.11,16.08,106.6771,16.37,17.33,31.74,0,110.6,13.27,17.18,102.5
"2009-04-30 00:58:30",844279,6.18,140.3,0.981,0.081,16.08,106.6768,16.37,17.31,31.73,0,110.6,13.27,17.18,102.3
"2009-04-30 00:59:00",844280,6.177,140.9,0.984,0.039,16.02,106.6799,16.37,17.34,31.68,0,110.6,13.27,17.18,102.9
"2009-04-30 00:59:30",844281,6.267,141.8,0.868,0.098,15.9,106.6824,16.38,17.33,31.72,0,110.6,13.27,17.19,103.8
"2009-04-30 01:00:00",844282,6.247,141.1,1.557,0.131,15.91,106.6866,16.39,17.32,31.68,0,110.6,13.27,17.20,103.1
"2009-04-30 01:00:30",844283,6.294,140.5,1.289,0.128,15.87,106.6878,16.39,17.34,31.71,0,110.6,13.27,17.20,102.5
"2009-04-30 01:01:00",844284,6.412,139.2,0.758,0.112,15.83,106.6889,16.4,17.33,31.78,0,110.6,13.27,17.21,101.2
"2009-04-30 01:01:30",844285,6.496,137.9,0.464,0.074,15.91,106.6892,16.4,17.34,31.86,0,110.6,13.27,17.21,99.9
"2009-04-30 01:02:00",844286,6.427,138.5,0.818,0.071,15.9,106.6892,16.4,17.35,31.84,0,110.6,13.27,17.21,100.5
"2009-04-30 01:02:30",844287,6.484,136.8,0.919,0.059,15.83,106.6892,16.4,17.34,31.84,0,110.6,13.27,17.21,98.8
"2009-04-30 01:03:00",844288,6.68,133.1,1.992,0.082,15.8,106.6892,16.4,17.35,31.93,0,110.6,13.27,17.21,95.1
"2009-04-30 01:03:30",844289,6.64,131.2,0.687,0.114,15.75,106.6892,16.4,17.37,32.15,0,110.6,13.27,17.21,93.2
"2009-04-30 01:04:00",844290,6.606,129.5,0.745,0.078,15.79,106.6892,16.4,17.37,32.22,0,110.6,13.27,17.21,91.5
"2009-04-30 01:04:30",844291,7.003,128,1.573,0.17,15.75,106.6892,16.4,17.38,32.33,0,110.6,13.27,17.21,90.0
"2009-04-30 01:05:00",844292,6.947,126.8,1.135,0.154,15.84,106.6892,16.4,17.38,32.31,0,110.6,13.28,17.21,88.8
"2009-04-30 01:05:30",844293,6.651,125.9,1.051,0.067,15.81,106.6892,16.4,17.38,32.31,0,110.6,13.28,17.21,87.9
"2009-04-30 01:06:00",844294,6.607,124.6,0.826,0.057,15.77,106.6892,16.4,17.38,32.49,0,110.6,13.28,17.21,86.6
"2009-04-30 01:06:30",844295,6.873,122.2,1.077,0.096,15.86,106.6892,16.4,17.38,32.41,0,110.6,13.28,17.21,84.2
"2009-04-30 01:07:00",844296,7.144,120.3,0.929,0.121,15.86,106.6864,16.39,17.39,32.14,0,110.6,13.28,17.20,82.3
"2009-04-30 01:07:30",844297,7.195,119.2,1.631,0.082,15.81,106.679,16.37,17.38,32.09,0,110.6,13.28,17.18,81.2
"2009-04-30 01:08:00",844298,6.989,120.2,1.157,0.084,15.85,106.6627,16.33,17.37,31.77,0,110.6,13.28,17.14,82.2
"2009-04-30 01:08:30",844299,6.804,118,0.534,0.059,15.79,106.6554,16.31,17.37,31.86,0,110.6,13.28,17.12,80.0
"2009-04-30 01:09:00",844300,6.751,118.8,2.088,0.117,15.89,106.6554,16.31,17.36,31.91,0,110.6,13.28,17.12,80.8
"2009-04-30 01:09:30",844301,6.742,115.5,1.619,0.092,15.84,106.6554,16.31,17.34,31.95,0,110.6,13.28,17.12,77.5
"2009-04-30 01:10:00",844302,6.468,116.4,1.382,0.104,15.85,106.6551,16.31,17.33,32.19,0,110.6,13.28,17.12,78.4
"2009-04-30 01:10:30",844303,6.258,115.2,1.286,0.159,15.76,106.6486,16.29,17.34,32.42,0,110.6,13.28,17.10,77.2
"2009-04-30 01:11:00",844304,6.652,113.6,0.826,0.083,15.71,106.6306,16.25,17.31,32.45,0,110.6,13.28,17.06,75.6
"2009-04-30 01:11:30",844305,6.227,115.3,2.142,0.226,15.78,106.6219,16.23,17.32,32.46,0,110.6,13.28,17.03,77.3
"2009-04-30 01:12:00",844306,6.681,114.4,1.584,0.25,15.8,106.6216,16.23,17.29,32.41,0,110.6,13.28,17.03,76.4
"2009-04-30 01:12:30",844307,6.861,113,0.66,0.104,15.77,106.6216,16.23,17.28,31.92,0,110.6,13.28,17.03,75.0
"2009-04-30 01:13:00",844308,6.515,114.4,1.008,0.149,15.77,106.6213,16.22,17.27,32.09,0,110.6,13.28,17.03,76.4
"2009-04-30 01:13:30",844309,6.37,115.3,1.99,0.221,15.89,106.6137,16.21,17.25,32.34,0,110.6,13.28,17.01,77.3
"2009-04-30 01:14:00",844310,6.457,115.9,1.56,0.184,15.87,106.6081,16.19,17.24,32.61,0,110.6,13.28,17.00,77.9
"2009-04-30 01:14:30",844311,6.728,116,2.289,0.258,15.84,106.5895,16.14,17.24,32.44,0,110.6,13.28,16.95,78.0
"2009-04-30 01:15:00",844312,6.818,113.4,2.957,0.076,15.9,106.5881,16.14,17.22,32.67,0,110.6,13.28,16.95,75.4
"2009-04-30 01:15:30",844313,6.58,108.9,1.699,0.094,15.92,106.5878,16.14,17.23,32.88,0,110.6,13.28,16.95,70.9
"2009-04-30 01:16:00",844314,6.619,110.9,1.269,0.164,15.98,106.5878,16.14,17.2,32.52,0,110.6,13.28,16.95,72.9
"2009-04-30 01:16:30",844315,6.416,108.2,1.89,0.188,15.93,106.5873,16.14,17.19,32.66,0,110.6,13.28,16.95,70.2
"2009-04-30 01:17:00",844316,6.284,108.7,1.389,0.09,15.88,106.5794,16.12,17.18,32.81,0,110.6,13.27,16.93,70.7
"2009-04-30 01:17:30",844317,6.262,107.7,1.66,0.153,15.96,106.5662,16.08,17.18,33.02,0,110.6,13.27,16.89,69.7
"2009-04-30 01:18:00",844318,6.216,108.9,1.076,0.132,15.96,106.5561,16.06,17.16,32.56,0,110.6,13.28,16.87,70.9
"2009-04-30 01:18:30",844319,6.197,110.9,2.075,0.075,15.94,106.5555,16.06,17.15,32.31,0,110.6,13.27,16.86,72.9
"2009-04-30 01:19:00",844320,6.213,108.3,0.952,0.098,15.94,106.5564,16.06,17.15,32.82,0,110.6,13.28,16.87,70.3
"2009-04-30 01:19:30",844321,6.082,112.1,1.932,0.1,15.98,106.5592,16.07,17.13,32.54,0,110.6,13.28,16.87,74.1
"2009-04-30 01:20:00",844322,6.26,114.3,0.943,0.084,15.94,106.5616,16.07,17.11,31.98,0,110.6,13.27,16.88,76.3
"2009-04-30 01:20:30",844323,6.133,115.1,1.143,0.072,15.95,106.5622,16.07,17.1,31.97,0,110.6,13.28,16.88,77.1
"2009-04-30 01:21:00",844324,5.997,115.4,1.033,0.166,15.93,106.553,16.05,17.1,31.96,0,110.5,13.28,16.86,77.4
"2009-04-30 01:21:30",844325,5.633,115.3,1.087,0.129,16,106.5517,16.05,17.09,32.06,0,110.5,13.28,16.85,77.3
"2009-04-30 01:22:00",844326,5.614,117.6,1.368,0.09,15.95,106.5465,16.03,17.08,32.06,0,110.6,13.28,16.84,79.6
"2009-04-30 01:22:30",844327,5.665,118.2,0.666,0.08,15.89,106.5387,16.01,17.08,32.05,0,110.5,13.28,16.82,80.2
"2009-04-30 01:23:00",844328,5.625,120.4,1.697,0.084,16.12,106.5368,16.01,17.06,31.93,0,110.5,13.28,16.82,82.4
"2009-04-30 01:23:30",844329,5.578,123.3,0.572,0.053,16.14,106.5395,16.01,17.07,31.79,0,110.5,13.28,16.82,85.3
"2009-04-30 01:24:00",844330,5.405,124.8,1.067,0.118,16.1,106.5452,16.03,17.06,31.75,0,110.5,13.28,16.84,86.8
"2009-04-30 01:24:30",844331,5.239,126.5,0.856,0.073,16.21,106.5467,16.03,17.03,31.8,0,110.5,13.28,16.84,88.5
"2009-04-30 01:25:00",844332,5.265,128.8,1,0.074,16.11,106.5473,16.03,17.04,31.82,0,110.5,13.28,16.84,90.8
"2009-04-30 01:25:30",844333,5.246,129.7,0.621,0.039,16.04,106.5518,16.05,17.03,31.86,0,110.5,13.29,16.85,91.7
"2009-04-30 01:26:00",844334,5.164,130.4,0.74,0.078,16.12,106.5512,16.04,17.03,31.86,0,110.5,13.29,16.85,92.4
"2009-04-30 01:26:30",844335,5.196,132.7,0.894,0.078,16.3,106.553,16.05,17.03,31.9,0,110.5,13.29,16.86,94.7
"2009-04-30 01:27:00",844336,5.257,132.6,0.699,0.066,16.23,106.5554,16.06,17.02,31.86,0,110.5,13.29,16.86,94.6
"2009-04-30 01:27:30",844337,5.202,132.4,0.908,0.08,16.26,106.5563,16.06,17.01,31.84,0,110.5,13.29,16.87,94.4
"2009-04-30 01:28:00",844338,5.09,133,1.638,0.129,16.22,106.556,16.06,17.02,31.83,0,110.5,13.29,16.87,95.0
"2009-04-30 01:28:30",844339,5.269,132.6,0.663,0.07,16.19,106.5557,16.06,17.01,31.86,0,110.5,13.29,16.86,94.6
"2009-04-30 01:29:00",844340,5.316,132.6,0.524,0.069,16.06,106.5551,16.06,17.01,31.86,0,110.5,13.29,16.86,94.6
"2009-04-30 01:29:30",844341,5.229,131,0.621,0.067,16.13,106.5489,16.04,17.02,32.05,0,110.5,13.29,16.85,93.0
"2009-04-30 01:30:00",844342,5.177,134.3,1.128,0.051,16.18,106.5447,16.03,17.01,31.8,0,110.5,13.29,16.84,96.3
"2009-04-30 01:30:30",844343,4.881,133.4,2.454,0.219,16.06,106.5391,16.01,17,31.83,0,110.5,13.29,16.82,95.4
"2009-04-30 01:31:00",844344,5.056,137.8,0.506,0.053,16.26,106.5323,16,17,31.63,0,110.5,13.29,16.80,99.8
"2009-04-30 01:31:30",844345,5.012,139.2,0.601,0.069,16.37,106.5244,15.98,16.99,31.46,0,110.5,13.29,16.78,101.2
"2009-04-30 01:32:00",844346,4.868,139.9,0.6,0.035,16.25,106.5228,15.97,17,31.45,0,110.5,13.29,16.78,101.9
"2009-04-30 01:32:30",844347,4.82,138.7,1.03,0.055,16.17,106.5228,15.97,16.98,31.44,0,110.5,13.29,16.78,100.7
"2009-04-30 01:33:00",844348,5.016,137.6,0.301,0.045,16.19,106.5225,15.97,16.99,31.41,0,110.5,13.29,16.78,99.6
"2009-04-30 01:33:30",844349,4.816,134.8,0.97,0.08,16.08,106.5225,15.97,16.99,31.53,0,110.5,13.28,16.78,96.8
"2009-04-30 01:34:00",844350,4.881,136.7,0.652,0.078,16.21,106.5225,15.97,16.99,31.51,0,110.5,13.28,16.78,98.7
"2009-04-30 01:34:30",844351,5.131,136.3,0.894,0.09,16.05,106.5225,15.97,16.99,31.38,0,110.5,13.28,16.78,98.3
"2009-04-30 01:35:00",844352,5.216,135.3,0.546,0.028,16.03,106.5225,15.97,16.99,31.33,0,110.5,13.28,16.78,97.3
"2009-04-30 01:35:30",844353,5.198,134.7,0.583,0.025,16.07,106.5225,15.97,16.98,31.33,0,110.5,13.28,16.78,96.7
"2009-04-30 01:36:00",844354,5.205,136.6,0.634,0.045,16.14,106.5225,15.97,16.98,31.35,0,110.5,13.29,16.78,98.6
"2009-04-30 01:36:30",844355,5.253,136.2,0.567,0.033,16.18,106.5225,15.97,16.98,31.37,0,110.5,13.28,16.78,98.2
"2009-04-30 01:37:00",844356,5.207,135.6,0.47,0.053,16.08,106.5225,15.97,16.96,31.4,0,110.5,13.29,16.78,97.6
"2009-04-30 01:37:30",844357,5.157,135,0.445,0.07,16.12,106.5225,15.97,16.97,31.35,0,110.5,13.29,16.78,97.0
"2009-04-30 01:38:00",844358,5.388,132.9,0.653,0.119,16.08,106.5225,15.97,16.96,31.3,0,110.5,13.29,16.78,94.9
"2009-04-30 01:38:30",844359,5.642,131.2,0.348,0.05,16.11,106.5222,15.97,16.97,31.26,0,110.5,13.3,16.78,93.2
"2009-04-30 01:39:00",844360,5.757,131.1,0.443,0.094,16.12,106.5202,15.97,16.96,31.29,0,110.5,13.3,16.77,93.1
"2009-04-30 01:39:30",844361,5.977,130.1,1.291,0.06,16.12,106.514,15.95,16.96,31.32,0,110.5,13.3,16.76,92.1
"2009-04-30 01:40:00",844362,5.917,129.1,0.979,0.073,16.08,106.5016,15.92,16.95,31.3,0,110.5,13.3,16.73,91.1
"2009-04-30 01:40:30",844363,5.964,130.2,0.756,0.049,16.12,106.4932,15.9,16.95,31.31,0,110.5,13.3,16.70,92.2
"2009-04-30 01:41:00",844364,5.973,129.9,1.165,0.132,16.22,106.4887,15.88,16.94,31.43,0,110.5,13.3,16.69,91.9
"2009-04-30 01:41:30",844365,5.997,126.7,2.049,0.134,16.25,106.489,15.89,16.93,31.4,0,110.5,13.3,16.69,88.7
"2009-04-30 01:42:00",844366,6.25,124.5,0.837,0.104,16.25,106.4887,15.88,16.92,31.35,0,110.5,13.3,16.69,86.5
"2009-04-30 01:42:30",844367,6.406,124.5,0.894,0.079,16.24,106.489,15.89,16.93,31.3,0,110.5,13.3,16.69,86.5
"2009-04-30 01:43:00",844368,6.353,121.2,1.449,0.089,16.16,106.4902,15.89,16.93,31.26,0,110.5,13.3,16.70,83.2
"2009-04-30 01:43:30",844369,6.37,119.1,0.904,0.086,16.23,106.4877,15.88,16.91,31.24,0,110.5,13.3,16.69,81.1
"2009-04-30 01:44:00",844370,6.486,118.4,0.597,0.052,16.32,106.4802,15.86,16.91,31.17,0,110.5,13.3,16.67,80.4
"2009-04-30 01:44:30",844371,6.642,118.2,0.755,0.055,16.17,106.4628,15.82,16.89,31.21,0,110.5,13.3,16.63,80.2
"2009-04-30 01:45:00",844372,6.566,117.1,0.49,0.041,16.25,106.4633,15.82,16.87,31.47,0,110.5,13.3,16.63,79.1
"2009-04-30 01:45:30",844373,6.542,116,1.107,0.098,16.16,106.4636,15.82,16.88,31.7,0,110.5,13.3,16.63,78.0
"2009-04-30 01:46:00",844374,6.473,114.7,0.91,0.088,16.14,106.4681,15.83,16.87,31.71,0,110.5,13.3,16.64,76.7
"2009-04-30 01:46:30",844375,6.397,115.3,0.896,0.086,16.14,106.4714,15.84,16.86,31.97,0,110.5,13.3,16.65,77.3
"2009-04-30 01:47:00",844376,6.317,114.5,1.006,0.069,16.22,106.4711,15.84,16.86,31.82,0,110.5,13.3,16.65,76.5
"2009-04-30 01:47:30",844377,6.22,114.8,0.576,0.054,16.2,106.4633,15.82,16.84,31.76,0,110.5,13.31,16.63,76.8
"2009-04-30 01:48:00",844378,6.277,113.7,0.684,0.055,16.31,106.4488,15.78,16.83,31.62,0,110.5,13.31,16.59,75.7
"2009-04-30 01:48:30",844379,6.207,112.4,0.569,0.041,16.36,106.452,15.79,16.84,31.67,0,110.5,13.31,16.60,74.4